Content
SEND FEEDBACK

Daily
Averages
Monthly
Summary
United States of America

WRIGHTSVILLE BEACH, NORTH CAROLINA


Home > North America > United States > North Carolina
Elevation: 25 feet     Latitude: 34 16N     Longitude: 077 54W

WEATHER
 
SELECT A DAY
Number of Records: 212,236;   Date Range: 1/1/95 - 10/18/14
 
SHARE

PRINT THIS DATA

[ ← Previous Day ]
WEATHER ALMANAC - JUNE 26, 2013
[ Next Day → ]
[ °C ]   °F
We're sorry. There is no daily almanac available for Wrightsville Beach, North Carolina on June 26, 2013.
WEATHER BY HOUR - JUNE 26, 2013
[ °C ]   °F
Local TimeTemperatureDewpointHumidityBarometerVisibilityWind DirectionWind SpeedGust SpeedPrecipitationEventsConditions
1:53 AM77.0 °F73.0 °F88 %30.04 in10.0 miSW (220°)4.6 mphClear
2:53 AM75.9 °F73.0 °F91 %30.04 in10.0 miSW (230°)4.6 mphClear
3:53 AM75.9 °F73.0 °F91 %30.04 in10.0 miSSW (210°)4.6 mphOvercast
4:53 AM75.0 °F73.0 °F94 %30.04 in10.0 miSSW (210°)5.8 mphPartly Cloudy
5:53 AM75.9 °F72.0 °F87 %30.05 in10.0 miSW (220°)5.8 mph0.01 inScattered Clouds
6:53 AM75.9 °F72.0 °F87 %30.06 in10.0 miSW (220°)9.2 mphClear
7:53 AM78.1 °F72.0 °F81 %30.06 in10.0 miWSW (240°)10.4 mphClear
8:53 AM80.1 °F71.1 °F74 %30.06 in10.0 miWSW (240°)11.5 mphClear
9:53 AM81.0 °F72.0 °F74 %30.05 in10.0 miWSW (240°)15.0 mph19.6 mphClear
10:53 AM82.9 °F71.1 °F67 %30.04 in10.0 miWSW (240°)15.0 mphClear
11:53 AM84.9 °F71.1 °F63 %30.04 in10.0 miWSW (250°)11.5 mphClear
12:53 PM86.0 °F70.0 °F59 %30.03 in10.0 miSSW (210°)9.2 mphClear
1:53 PM88.0 °F72.0 °F59 %30.01 in10.0 miSW (230°)9.2 mph18.4 mphPartly Cloudy
2:53 PM87.1 °F73.0 °F63 %29.99 in10.0 miSSW (200°)8.1 mphMostly Cloudy
3:53 PM87.1 °F73.0 °F63 %29.97 in10.0 miSouth (190°)16.1 mphMostly Cloudy
4:23 PM84.2 °F71.6 °F66 %29.98 in10.0 miSW (230°)17.3 mph24.2 mphThunderstormScattered Clouds
4:53 PM82.0 °F72.0 °F71 %29.98 in10.0 miSW (230°)16.1 mphThunderstormPartly Cloudy
5:10 PM80.6 °F68.0 °F65 %29.98 in10.0 miSW (220°)13.8 mphClear
5:53 PM78.1 °F66.9 °F68 %29.97 in10.0 miSW (220°)5.8 mphClear
6:53 PM78.1 °F71.1 °F79 %29.98 in10.0 miSSW (200°)12.7 mph0.00 inPartly Cloudy
7:53 PM79.0 °F73.9 °F84 %29.97 in10.0 miSSW (210°)9.2 mphPartly Cloudy
8:53 PM79.0 °F73.9 °F84 %29.97 in10.0 miSW (220°)8.1 mph0.01 inClear
9:53 PM80.1 °F73.9 °F81 %30.00 in10.0 miSW (230°)8.1 mphClear
10:32 PM78.8 °F73.4 °F83 %30.00 in10.0 miSSW (210°)5.8 mphThunderstormThunderstorm
10:53 PM78.1 °F73.9 °F87 %29.99 in10.0 miSSW (210°)10.4 mphOvercast
11:10 PM75.2 °F71.6 °F89 %30.03 in2.5 miWNW (300°)18.4 mph29.9 mph0.05 inRain-ThunderstormHeavy Thunderstorms and Rain
11:14 PM73.4 °F66.2 °F78 %30.03 in1.2 miNW (310°)11.5 mph29.9 mph0.20 inRain-ThunderstormHeavy Thunderstorms and Rain
11:24 PM71.6 °F66.2 °F83 %30.01 in1.8 miWNW (300°)8.1 mph26.5 mph0.48 inRain-ThunderstormHeavy Thunderstorms and Rain
11:29 PM71.6 °F66.2 °F83 %30.00 in3.0 miWNW (300°)9.2 mph0.52 inRain-ThunderstormHeavy Thunderstorms and Rain
11:53 PM71.1 °F68.0 °F90 %30.00 in10.0 miSSW (200°)10.4 mph0.54 inThunderstormThunderstorm
Hourly data recorded from KILM, located miles away from Wrightsville Beach, North Carolina







STORIES FROM OUR PARTNERS